FW6569 Weather Reports


time (UTC)temp
C
wind
direction
speed
KPH
gust
KPH
rain 1hr
cm
rain 24hr
cm
rain mn
cm
humidity
%
barometer
mb
20260510200525 22 4 8.0 17.7 0.00 0.00 0.00 37 1017.5
20260510195545 22 23 3.2 9.7 0.00 0.00 0.00 36 1017.8
20260510194526 22 7 6.4 12.9 0.00 0.00 0.00 36 1017.9
20260510193525 22 11 8.0 22.5 0.00 0.00 0.00 37 1018.0
20260510192546 22 2 6.4 11.3 0.00 0.00 0.00 37 1017.9
20260510191526 22 17 6.4 9.7 0.00 0.00 0.00 38 1017.9
20260510190525 22 13 4.8 9.7 0.00 0.00 0.00 40 1018.0
20260510185525 21 19 8.0 14.5 0.00 0.00 0.00 41 1018.0
20260510184545 21 3 9.7 14.5 0.00 0.00 0.00 40 1018.0
20260510183526 21 28 9.7 14.5 0.00 0.00 0.00 40 1018.0
20260510182526 21 341 6.4 14.5 0.00 0.00 0.00 42 1017.9
20260510181525 22 327 4.8 9.7 0.00 0.00 0.00 42 1017.9
20260510180526 21 15 9.7 14.5 0.00 0.00 0.00 41 1017.9
20260510175526 21 46 9.7 14.5 0.00 0.00 0.00 41 1018.0
20260510174525 21 14 9.7 14.5 0.00 0.00 0.00 44 1018.0
20260510173527 21 281 6.4 9.7 0.00 0.00 0.00 41 1018.0
20260510172526 21 4 11.3 17.7 0.00 0.00 0.00 41 1018.1
20260510171526 21 349 6.4 16.1 0.00 0.00 0.00 44 1018.0
20260510170526 21 50 8.0 12.9 0.00 0.00 0.00 41 1018.2
20260510165525 21 12 9.7 17.7 0.00 0.00 0.00 44 1017.9
20260510164525 20 224 4.8 12.9 0.00 0.00 0.00 41 1017.7
20260510163526 21 54 8.0 12.9 0.00 0.00 0.00 43 1017.6
20260510162525 20 0 4.8 9.7 0.00 0.00 0.00 48 1017.6
20260510161526 20 56 8.0 12.9 0.00 0.00 0.00 47 1017.7
20260510160547 20 16 6.4 12.9 0.00 0.00 0.00 46 1017.6
20260510155526 20 35 8.0 12.9 0.00 0.00 0.00 47 1017.8
20260510154526 19 54 8.0 16.1 0.00 0.00 0.00 48 1017.6
20260510153526 18 26 11.3 14.5 0.00 0.00 0.00 50 1017.5
20260510152526 19 17 9.7 12.9 0.00 0.00 0.00 47 1017.5
20260510151546 18 38 9.7 14.5 0.00 0.00 0.00 49 1017.5
20260510150546 18 16 11.3 14.5 0.00 0.00 0.00 49 1017.4
20260510145546 18 30 9.7 12.9 0.00 0.00 0.00 49 1017.2
20260510144526 18 17 9.7 11.3 0.00 0.00 0.00 49 1017.1
20260510143526 18 17 9.7 14.5 0.00 0.00 0.00 49 1017.1
20260510142526 17 25 9.7 12.9 0.00 0.00 0.00 50 1017.0
20260510141526 16 13 12.9 17.7 0.00 0.00 0.00 51 1016.9
20260510140546 16 15 11.3 14.5 0.00 0.00 0.00 53 1016.8
20260510135546 16 25 9.7 14.5 0.00 0.00 0.00 54 1016.8
20260510134546 16 9 8.0 11.3 0.00 0.00 0.00 54 1016.8
20260510133526 16 7 8.0 11.3 0.00 0.00 0.00 58 1016.7
20260510132526 16 10 6.4 11.3 0.00 0.00 0.00 59 1016.4
20260510131526 15 20 6.4 12.9 0.00 0.00 0.00 61 1016.1
20260510130526 15 18 9.7 12.9 0.00 0.00 0.00 59 1015.8
20260510125527 15 2 9.7 12.9 0.00 0.00 0.00 62 1015.5
20260510124527 15 18 8.0 12.9 0.00 0.00 0.00 62 1015.6
20260510123526 15 22 8.0 12.9 0.00 0.00 0.00 64 1015.4
20260510122526 15 11 11.3 16.1 0.00 0.00 0.00 65 1015.3
20260510121546 14 17 9.7 12.9 0.00 0.00 0.00 68 1015.0
20260510120526 14 6 8.0 11.3 0.00 0.00 0.00 70 1014.8
20260510115527 14 9 9.7 12.9 0.00 0.00 0.00 70 1014.5
20260510114526 13 10 9.7 11.3 0.00 0.00 0.00 72 1014.2
20260510113527 13 14 9.7 12.9 0.00 0.00 0.00 73 1013.9
20260510112526 13 26 8.0 11.3 0.00 0.00 0.00 74 1013.8
20260510111526 13 19 9.7 12.9 0.00 0.03 0.00 75 1013.6
20260510110527 13 23 9.7 12.9 0.00 0.03 0.00 77 1013.5
20260510105526 13 8 8.0 11.3 0.00 0.03 0.00 83 1013.3
20260510104547 13 33 8.0 11.3 0.00 0.03 0.00 87 1013.0
20260510103527 13 5 9.7 12.9 0.00 0.03 0.00 91 1013.1
20260510102526 13 9 6.4 11.3 0.00 0.03 0.00 93 1013.2
20260510101527 13 356 3.2 6.4 0.00 0.03 0.00 93 1013.3
20260510100547 12 356 1.6 6.4 0.00 0.03 0.00 93 1013.6
20260510095527 12 283 1.6 3.2 0.00 0.03 0.00 93 1013.7
20260510094527 12 240 4.8 9.7 0.00 0.03 0.00 94 1013.8
20260510093526 12 245 3.2 6.4 0.00 0.03 0.00 94 1013.4
20260510092527 12 0.0 0.0 0.00 0.05 0.00 93 1012.7
20260510091527 12 354 0.0 4.8 0.00 0.05 0.00 93 1012.7
20260510090526 12 0.0 0.0 0.00 0.10 0.00 92 1012.6
20260510085527 12 0.0 0.0 0.00 0.13 0.00 93 1012.4
20260510084527 12 0.0 0.0 0.00 0.13 0.00 92 1012.3
20260510083527 12 0.0 0.0 0.00 0.13 0.00 92 1012.3
20260510082527 12 0.0 0.0 0.00 0.15 0.00 91 1012.1
20260510081527 12 0.0 0.0 0.00 0.18 0.00 90 1012.0
20260510080527 12 0.0 0.0 0.00 0.23 0.00 89 1011.8
20260510075528 12 215 0.0 3.2 0.00 0.23 0.00 88 1011.8
20260510074527 13 0.0 0.0 0.00 0.25 0.00 87 1011.7
20260510073527 13 194 0.0 4.8 0.00 0.28 0.00 86 1011.6
20260510072527 13 66 1.6 3.2 0.00 0.30 0.00 86 1011.4
20260510071527 13 320 3.2 6.4 0.00 0.33 0.00 86 1011.5
20260510070547 13 279 3.2 6.4 0.00 0.36 0.00 85 1011.2
20260510065547 13 179 3.2 3.2 0.00 0.38 0.00 85 1011.1
20260510064527 13 185 3.2 3.2 0.00 0.38 0.00 85 1011.2
20260510063527 13 220 3.2 4.8 0.00 0.38 0.00 86 1011.3
20260510062547 13 193 4.8 6.4 0.00 0.38 0.00 87 1011.2
20260510061547 13 196 3.2 4.8 0.00 0.38 0.00 88 1011.3
20260510060547 12 205 3.2 4.8 0.00 0.41 0.00 89 1011.6
20260510055527 13 0.0 0.0 0.00 0.43 0.00 89 1011.6
20260510054547 12 0.0 0.0 0.00 0.43 0.00 87 1011.7
20260510053547 13 0.0 0.0 0.00 0.46 0.00 86 1011.7
20260510052527 13 0.0 0.0 0.00 0.46 0.00 86 1011.7
20260510051527 13 0.0 0.0 0.00 0.46 0.00 86 1011.7
20260510050527 13 0.0 0.0 0.00 0.46 0.00 86 1011.5
20260510045527 13 0.0 0.0 0.00 0.46 0.00 85 1011.4
20260510044548 13 0.0 0.0 0.00 0.46 0.00 85 1011.4
20260510043527 13 212 1.6 3.2 0.00 0.46 0.00 86 1011.5
20260510042527 13 225 1.6 3.2 0.00 0.46 0.00 87 1011.5
20260510041548 13 0.0 0.0 0.00 0.46 0.00 85 1011.5
20260510040527 13 223 0.0 3.2 0.00 0.48 0.00 86 1011.6
20260510035527 13 0.0 0.0 0.00 0.48 0.48 87 1011.6
20260510034527 13 196 0.0 1.6 0.00 0.48 0.48 87 1011.6
20260510033527 13 0.0 0.0 0.00 0.48 0.48 85 1011.5
20260510032528 13 0.0 0.0 0.00 0.51 0.48 84 1011.5
20260510031527 13 272 0.0 3.2 0.00 0.51 0.48 85 1011.5
20260510030527 14 0.0 0.0 0.00 0.53 0.48 83 1011.5
20260510025548 14 211 1.6 3.2 0.00 0.53 0.48 83 1011.4
20260510024527 14 0.0 0.0 0.00 0.56 0.48 81 1011.3
20260510023548 14 0.0 0.0 0.00 0.56 0.48 79 1011.2
20260510022527 15 0.0 0.0 0.00 0.58 0.48 78 1011.0
20260510021527 15 0.0 0.0 0.00 0.61 0.48 78 1010.9
20260510020528 15 0.0 0.0 0.00 0.61 0.48 74 1010.8
20260510015528 15 0.0 0.0 0.00 0.61 0.48 74 1010.7
20260510014527 16 0.0 0.0 0.00 0.61 0.48 71 1010.6
20260510013528 16 0.0 0.0 0.00 0.61 0.48 71 1010.4
20260510012527 17 221 0.0 3.2 0.00 0.61 0.48 69 1010.2
20260510011528 17 0.0 0.0 0.00 0.61 0.48 66 1010.0
20260510010528 17 0.0 0.0 0.00 0.61 0.48 65 1009.9
20260510005527 18 0.0 0.0 0.00 0.61 0.48 62 1009.8
20260510004528 19 227 0.0 3.2 0.00 0.61 0.48 61 1009.7
20260510003528 20 234 1.6 4.8 0.00 0.61 0.48 57 1009.5
20260510002528 20 227 3.2 9.7 0.00 0.61 0.48 55 1009.3
20260510001548 21 224 4.8 9.7 0.00 0.61 0.48 53 1009.1
20260510000528 21 249 6.4 11.3 0.00 0.61 0.48 52 1008.9
20260509235528 22 224 8.0 12.9 0.00 0.61 0.48 50 1008.9
20260509234528 22 242 9.7 16.1 0.00 0.61 0.48 48 1008.8
20260509233528 22 252 8.0 16.1 0.00 0.61 0.48 47 1008.6
20260509232528 23 238 8.0 20.9 0.00 0.61 0.48 47 1008.5
20260509231528 23 220 8.0 14.5 0.00 0.61 0.48 48 1008.4
20260509230528 23 236 8.0 16.1 0.00 0.61 0.48 47 1008.3
20260509225608 23 229 11.3 16.1 0.00 0.61 0.48 49 1008.3
20260509224528 23 243 12.9 20.9 0.00 0.61 0.48 48 1008.3
20260509223528 24 213 11.3 22.5 0.00 0.61 0.48 47 1008.3
20260509222528 24 221 11.3 22.5 0.00 0.61 0.48 46 1008.3
20260509221528 24 275 11.3 17.7 0.00 0.61 0.48 45 1008.4
20260509220528 24 228 12.9 19.3 0.00 0.61 0.48 45 1008.4
20260509215528 24 217 16.1 25.7 0.00 0.61 0.48 46 1008.5
20260509214528 24 219 14.5 24.1 0.00 0.61 0.48 45 1008.3
20260509213528 24 223 14.5 20.9 0.00 0.61 0.48 47 1008.4
20260509212529 23 241 12.9 17.7 0.00 0.61 0.48 52 1008.5
20260509211528 23 211 16.1 25.7 0.00 0.61 0.48 51 1008.5
20260509210528 23 204 17.7 27.4 0.00 0.61 0.48 52 1008.5
20260509205528 23 204 17.7 27.4 0.00 0.61 0.48 52 1008.5
20260509204529 23 208 16.1 22.5 0.00 0.61 0.48 52 1008.5
20260509203529 23 209 17.7 24.1 0.00 0.61 0.48 52 1008.7
20260509202608 23 221 12.9 20.9 0.00 0.61 0.48 55 1008.6